When you browse on this site, cookies collect data to enhance your experience and personalize the content and advertising you see.
Visit our Privacy Policy to learn more. By continuing to use the site, you agree to this use of cookies and data.
  • In Portugal
  • List of Countries
  • For 7 days
  • Water Temperature
  • Weather Map
  • Weather Widgets
  • user-avatar
    Login

    Hourly Weather Nendeln

    Today, 8 April, Wednesday

    Time Temperature Precipitation Wind Pressure Humidity
    00:00 +5°C° 0 mm 2 mps 677 mmHg 70%
    01:00 +5°C° 0 mm 2 mps 677 mmHg 69%
    02:00 +5°C° 0 mm 2 mps 676 mmHg 68%
    03:00 +4°C° 0 mm 2 mps 676 mmHg 68%
    04:00 +4°C° 0 mm 2 mps 676 mmHg 67%
    05:00 +4°C° 0 mm 2 mps 676 mmHg 65%
    06:00 +5°C° 0 mm 2 mps 676 mmHg 64%
    07:00 +5°C° 0 mm 2 mps 676 mmHg 62%
    08:00 +9°C° 0 mm 1 mps 677 mmHg 57%
    09:00 +12°C° 0 mm 1 mps 677 mmHg 52%
    10:00 +14°C° 0 mm 1 mps 677 mmHg 46%
    11:00 +15°C° 0 mm 1 mps 677 mmHg 46%
    12:00 +16°C° 0 mm 1 mps 677 mmHg 45%
    13:00 +18°C° 0 mm 1 mps 677 mmHg 44%
    14:00 +16°C° 0 mm 1 mps 677 mmHg 46%
    15:00 +16°C° 0 mm 1 mps 676 mmHg 48%
    16:00 +16°C° 0 mm 1 mps 676 mmHg 49%
    17:00 +14°C° 0 mm 1 mps 675 mmHg 59%
    18:00 +11°C° 0 mm 1 mps 675 mmHg 68%
    19:00 +8°C° 0 mm 0 mps 674 mmHg 77%
    20:00 +8°C° 0 mm 1 mps 674 mmHg 78%
    21:00 +8°C° 0 mm 1 mps 674 mmHg 78%
    22:00 +7°C° 0 mm 1 mps 674 mmHg 79%
    23:00 +7°C° 0 mm 1 mps 674 mmHg 79%

    Tomorrow, 9 April, Thursday

    Time Temperature Precipitation Wind Pressure Humidity
    00:00 +7°C° 0 mm 1 mps 674 mmHg 80%
    01:00 +7°C° 0 mm 1 mps 674 mmHg 80%
    02:00 +6°C° 0 mm 1 mps 674 mmHg 81%
    03:00 +6°C° 0 mm 1 mps 674 mmHg 82%
    04:00 +6°C° 0 mm 1 mps 674 mmHg 82%
    05:00 +6°C° 0 mm 1 mps 674 mmHg 81%
    06:00 +7°C° 0 mm 1 mps 674 mmHg 80%
    07:00 +7°C° 0 mm 0 mps 674 mmHg 79%
    08:00 +10°C° 0 mm 1 mps 675 mmHg 72%
    09:00 +12°C° 0 mm 1 mps 675 mmHg 66%
    10:00 +14°C° 0 mm 1 mps 676 mmHg 59%
    11:00 +14°C° 0 mm 1 mps 676 mmHg 57%
    12:00 +15°C° 0 mm 1 mps 675 mmHg 54%
    13:00 +16°C° 0 mm 2 mps 675 mmHg 51%
    14:00 +15°C° 0 mm 2 mps 675 mmHg 54%
    15:00 +15°C° 0 mm 2 mps 675 mmHg 57%
    16:00 +15°C° 0 mm 2 mps 675 mmHg 59%
    17:00 +13°C° 0.1 mm 2 mps 674 mmHg 68%
    18:00 +11°C° 0.1 mm 1 mps 674 mmHg 77%
    19:00 +9°C° 0.1 mm 1 mps 674 mmHg 86%
    20:00 +8°C° 0 mm 1 mps 674 mmHg 87%
    21:00 +8°C° 0 mm 1 mps 674 mmHg 89%
    22:00 +7°C° 0 mm 1 mps 674 mmHg 90%
    23:00 +7°C° 0 mm 1 mps 674 mmHg 90%

    Day after tomorrow, 10 April, Friday

    Time Temperature Precipitation Wind Pressure Humidity
    00:00 +6°C° 0 mm 1 mps 674 mmHg 90%
    01:00 +6°C° 0 mm 1 mps 674 mmHg 90%
    02:00 +6°C° 0 mm 1 mps 674 mmHg 89%
    03:00 +6°C° 0 mm 1 mps 674 mmHg 89%
    04:00 +6°C° 0 mm 1 mps 673 mmHg 89%
    05:00 +6°C° 0 mm 1 mps 674 mmHg 86%
    06:00 +7°C° 0 mm 1 mps 674 mmHg 83%
    07:00 +8°C° 0 mm 1 mps 675 mmHg 80%
    08:00 +10°C° 0 mm 1 mps 675 mmHg 72%
    09:00 +12°C° 0 mm 1 mps 675 mmHg 64%
    10:00 +15°C° 0 mm 1 mps 676 mmHg 56%
    11:00 +16°C° 0 mm 1 mps 676 mmHg 53%
    12:00 +16°C° 0 mm 1 mps 676 mmHg 50%
    13:00 +17°C° 0 mm 2 mps 676 mmHg 47%
    14:00 +17°C° 0 mm 2 mps 675 mmHg 49%
    15:00 +17°C° 0 mm 2 mps 675 mmHg 51%
    16:00 +17°C° 0 mm 2 mps 675 mmHg 53%
    17:00 +14°C° 0 mm 2 mps 674 mmHg 63%
    18:00 +12°C° 0 mm 1 mps 674 mmHg 74%
    19:00 +10°C° 0 mm 1 mps 673 mmHg 84%
    20:00 +9°C° 0 mm 1 mps 673 mmHg 86%
    21:00 +9°C° 0 mm 1 mps 673 mmHg 88%
    22:00 +8°C° 0 mm 1 mps 673 mmHg 90%
    23:00 +8°C° 0 mm 1 mps 673 mmHg 90%

    11 April, Saturday

    Time Temperature Precipitation Wind Pressure Humidity
    00:00 +7°C° 0 mm 1 mps 673 mmHg 90%
    01:00 +7°C° 0 mm 1 mps 673 mmHg 91%
    02:00 +7°C° 0 mm 1 mps 673 mmHg 91%
    03:00 +7°C° 0 mm 1 mps 673 mmHg 91%
    04:00 +6°C° 0 mm 1 mps 673 mmHg 91%
    05:00 +6°C° 0 mm 0 mps 673 mmHg 89%
    06:00 +7°C° 0 mm 0 mps 674 mmHg 87%
    07:00 +8°C° 0 mm 0 mps 674 mmHg 85%
    08:00 +11°C° 0 mm 1 mps 674 mmHg 77%
    09:00 +13°C° 0 mm 1 mps 675 mmHg 69%
    10:00 +15°C° 0 mm 1 mps 675 mmHg 61%
    11:00 +15°C° 0 mm 1 mps 675 mmHg 57%
    12:00 +16°C° 0 mm 1 mps 675 mmHg 54%
    13:00 +17°C° 0 mm 2 mps 675 mmHg 51%
    14:00 +17°C° 0 mm 2 mps 674 mmHg 51%
    15:00 +17°C° 0 mm 2 mps 674 mmHg 51%
    16:00 +16°C° 0 mm 2 mps 674 mmHg 52%
    17:00 +14°C° 0.1 mm 1 mps 673 mmHg 61%
    18:00 +12°C° 0.1 mm 1 mps 673 mmHg 71%
    19:00 +10°C° 0.1 mm 1 mps 672 mmHg 80%
    20:00 +10°C° 0 mm 1 mps 672 mmHg 81%
    21:00 +9°C° 0 mm 1 mps 672 mmHg 82%
    22:00 +8°C° 0 mm 1 mps 672 mmHg 84%
    23:00 +9°C° 0.1 mm 1 mps 672 mmHg 84%

    12 April, Sunday

    Time Temperature Precipitation Wind Pressure Humidity
    00:00 +9°C° 0.1 mm 1 mps 673 mmHg 83%
    01:00 +9°C° 0.1 mm 1 mps 673 mmHg 83%
    02:00 +9°C° 0.2 mm 1 mps 672 mmHg 85%
    03:00 +9°C° 0.2 mm 1 mps 672 mmHg 86%
    04:00 +9°C° 0.2 mm 1 mps 672 mmHg 88%
    05:00 +9°C° 0 mm 1 mps 672 mmHg 86%
    06:00 +9°C° 0 mm 1 mps 672 mmHg 85%
    07:00 +9°C° 0 mm 1 mps 672 mmHg 84%
    08:00 +11°C° 0.1 mm 1 mps 672 mmHg 77%
    09:00 +13°C° 0.1 mm 1 mps 672 mmHg 71%
    10:00 +14°C° 0.1 mm 1 mps 672 mmHg 64%
    11:00 +15°C° 0.6 mm 1 mps 671 mmHg 63%
    12:00 +15°C° 0.6 mm 1 mps 671 mmHg 62%
    13:00 +16°C° 0.6 mm 1 mps 670 mmHg 61%
    14:00 +16°C° 0.8 mm 1 mps 670 mmHg 61%
    15:00 +15°C° 0.8 mm 1 mps 669 mmHg 61%
    16:00 +15°C° 0.8 mm 1 mps 669 mmHg 62%
    17:00 +13°C° 0.3 mm 1 mps 668 mmHg 67%
    18:00 +12°C° 0.3 mm 1 mps 667 mmHg 72%
    19:00 +10°C° 0.3 mm 1 mps 667 mmHg 77%
    20:00 +10°C° 0.1 mm 1 mps 667 mmHg 79%
    21:00 +9°C° 0.1 mm 1 mps 667 mmHg 80%
    22:00 +9°C° 0.1 mm 1 mps 667 mmHg 81%
    23:00 +8°C° 0 mm 1 mps 667 mmHg 81%

    13 April, Monday

    Time Temperature Precipitation Wind Pressure Humidity
    00:00 +8°C° 0 mm 1 mps 667 mmHg 82%
    01:00 +7°C° 0 mm 1 mps 666 mmHg 83%
    02:00 +7°C° 0 mm 1 mps 666 mmHg 83%
    03:00 +6°C° 0 mm 1 mps 666 mmHg 83%
    04:00 +6°C° 0 mm 1 mps 666 mmHg 83%
    05:00 +7°C° 0 mm 1 mps 666 mmHg 81%
    06:00 +7°C° 0 mm 1 mps 666 mmHg 80%
    07:00 +8°C° 0 mm 1 mps 667 mmHg 78%
    08:00 +9°C° 0 mm 1 mps 667 mmHg 71%
    09:00 +11°C° 0 mm 1 mps 667 mmHg 64%
    10:00 +12°C° 0 mm 1 mps 668 mmHg 56%
    11:00 +12°C° 0 mm 1 mps 668 mmHg 55%
    12:00 +13°C° 0 mm 2 mps 668 mmHg 55%
    13:00 +13°C° 0 mm 2 mps 668 mmHg 54%
    14:00 +13°C° 0.2 mm 2 mps 667 mmHg 60%
    15:00 +11°C° 0.2 mm 3 mps 667 mmHg 66%
    16:00 +10°C° 0.2 mm 3 mps 667 mmHg 72%
    17:00 +9°C° 0.3 mm 2 mps 666 mmHg 78%
    18:00 +8°C° 0.3 mm 2 mps 666 mmHg 84%
    19:00 +7°C° 0.3 mm 2 mps 666 mmHg 91%
    20:00 +7°C° 0.5 mm 2 mps 666 mmHg 92%
    21:00 +7°C° 0.5 mm 1 mps 667 mmHg 94%
    22:00 +7°C° 0.5 mm 1 mps 667 mmHg 95%
    23:00 +5°C° 1.4 mm 2 mps 667 mmHg 96%
    Show more